Hourly Weather Luciny

Today, 13 June, Sunday

Time Temperature Precipitation Wind Pressure Humidity
00:00 +10°C° 0 mm 5 mps 754 mmHg 92%
01:00 +10°C° 0 mm 5 mps 754 mmHg 93%
02:00 +9°C° 0 mm 6 mps 755 mmHg 93%
03:00 +9°C° 0 mm 6 mps 755 mmHg 93%
04:00 +8°C° 0 mm 7 mps 755 mmHg 92%
05:00 +9°C° 0 mm 7 mps 756 mmHg 89%
06:00 +10°C° 0 mm 7 mps 756 mmHg 86%
07:00 +10°C° 0 mm 8 mps 756 mmHg 82%
08:00 +11°C° 0 mm 7 mps 757 mmHg 79%
09:00 +11°C° 0 mm 7 mps 757 mmHg 76%
10:00 +12°C° 0 mm 7 mps 758 mmHg 73%
11:00 +12°C° 0 mm 7 mps 758 mmHg 71%
12:00 +14°C° 0 mm 7 mps 758 mmHg 69%
13:00 +14°C° 0 mm 7 mps 758 mmHg 68%
14:00 +14°C° 0 mm 6 mps 759 mmHg 67%
15:00 +14°C° 0 mm 6 mps 759 mmHg 67%
16:00 +14°C° 0 mm 6 mps 759 mmHg 67%
17:00 +14°C° 0 mm 6 mps 759 mmHg 68%
18:00 +14°C° 0 mm 5 mps 759 mmHg 70%
19:00 +14°C° 0 mm 4 mps 760 mmHg 72%
20:00 +12°C° 0 mm 4 mps 760 mmHg 76%
21:00 +11°C° 0 mm 3 mps 760 mmHg 81%
22:00 +10°C° 0 mm 3 mps 760 mmHg 85%
23:00 +9°C° 0 mm 3 mps 760 mmHg 86%

Tomorrow, 14 June, Monday

Time Temperature Precipitation Wind Pressure Humidity
00:00 +9°C° 0 mm 3 mps 760 mmHg 87%
01:00 +9°C° 0 mm 2 mps 760 mmHg 89%
02:00 +8°C° 0 mm 2 mps 760 mmHg 89%
03:00 +8°C° 0 mm 2 mps 760 mmHg 90%
04:00 +8°C° 0 mm 2 mps 760 mmHg 91%
05:00 +10°C° 0 mm 2 mps 760 mmHg 86%
06:00 +13°C° 0 mm 2 mps 760 mmHg 81%
07:00 +15°C° 0 mm 2 mps 761 mmHg 77%
08:00 +16°C° 0 mm 2 mps 760 mmHg 71%
09:00 +17°C° 0 mm 2 mps 760 mmHg 66%
10:00 +19°C° 0 mm 2 mps 760 mmHg 61%
11:00 +20°C° 0 mm 2 mps 760 mmHg 58%
12:00 +20°C° 0 mm 2 mps 759 mmHg 55%
13:00 +21°C° 0 mm 2 mps 759 mmHg 52%
14:00 +23°C° 0 mm 2 mps 759 mmHg 51%
15:00 +23°C° 0 mm 1 mps 759 mmHg 50%
16:00 +23°C° 0 mm 1 mps 758 mmHg 50%
17:00 +22°C° 0 mm 1 mps 758 mmHg 56%
18:00 +20°C° 0 mm 2 mps 758 mmHg 62%
19:00 +19°C° 0 mm 2 mps 758 mmHg 68%
20:00 +18°C° 0 mm 2 mps 758 mmHg 70%
21:00 +17°C° 0 mm 2 mps 758 mmHg 71%
22:00 +14°C° 0 mm 3 mps 758 mmHg 73%
23:00 +14°C° 0 mm 3 mps 758 mmHg 74%

Day after tomorrow, 15 June, Tuesday

Time Temperature Precipitation Wind Pressure Humidity
00:00 +14°C° 0 mm 3 mps 757 mmHg 75%
01:00 +13°C° 0 mm 3 mps 757 mmHg 75%
02:00 +13°C° 0 mm 3 mps 757 mmHg 76%
03:00 +13°C° 0 mm 3 mps 757 mmHg 77%
04:00 +13°C° 0 mm 3 mps 757 mmHg 79%
05:00 +16°C° 0 mm 3 mps 757 mmHg 77%
06:00 +17°C° 0 mm 3 mps 757 mmHg 76%
07:00 +18°C° 0 mm 3 mps 757 mmHg 74%
08:00 +20°C° 0 mm 3 mps 757 mmHg 71%
09:00 +21°C° 0 mm 3 mps 757 mmHg 68%
10:00 +24°C° 0 mm 3 mps 757 mmHg 65%
11:00 +24°C° 0.4 mm 3 mps 757 mmHg 65%
12:00 +24°C° 0.4 mm 3 mps 757 mmHg 65%
13:00 +25°C° 0.4 mm 3 mps 757 mmHg 66%
14:00 +23°C° 0.8 mm 4 mps 757 mmHg 70%
15:00 +22°C° 0.8 mm 4 mps 757 mmHg 74%
16:00 +22°C° 0.8 mm 4 mps 757 mmHg 78%
17:00 +21°C° 0.4 mm 3 mps 757 mmHg 81%
18:00 +20°C° 0.4 mm 3 mps 757 mmHg 84%
19:00 +19°C° 0.4 mm 3 mps 757 mmHg 86%
20:00 +18°C° 0 mm 2 mps 757 mmHg 86%
21:00 +17°C° 0 mm 2 mps 757 mmHg 86%
22:00 +16°C° 0 mm 2 mps 758 mmHg 86%
23:00 +14°C° 0 mm 3 mps 758 mmHg 83%

16 June, Wednesday

Time Temperature Precipitation Wind Pressure Humidity
00:00 +13°C° 0 mm 3 mps 758 mmHg 81%
01:00 +11°C° 0 mm 3 mps 758 mmHg 78%
02:00 +11°C° 0 mm 3 mps 758 mmHg 79%
03:00 +10°C° 0 mm 2 mps 758 mmHg 80%
04:00 +10°C° 0 mm 2 mps 758 mmHg 81%
05:00 +12°C° 0 mm 2 mps 758 mmHg 79%
06:00 +14°C° 0 mm 2 mps 759 mmHg 78%
07:00 +16°C° 0 mm 2 mps 759 mmHg 77%
08:00 +17°C° 0 mm 2 mps 759 mmHg 72%
09:00 +19°C° 0 mm 2 mps 759 mmHg 66%
10:00 +20°C° 0 mm 2 mps 759 mmHg 61%
11:00 +21°C° 0 mm 2 mps 759 mmHg 58%
12:00 +23°C° 0 mm 2 mps 758 mmHg 55%
13:00 +24°C° 0 mm 2 mps 758 mmHg 52%
14:00 +24°C° 0 mm 2 mps 758 mmHg 52%
15:00 +24°C° 0 mm 2 mps 758 mmHg 51%
16:00 +24°C° 0 mm 2 mps 758 mmHg 51%
17:00 +23°C° 0 mm 2 mps 758 mmHg 57%
18:00 +21°C° 0 mm 2 mps 758 mmHg 64%
19:00 +20°C° 0 mm 2 mps 758 mmHg 71%
20:00 +19°C° 0 mm 3 mps 758 mmHg 73%
21:00 +17°C° 0 mm 3 mps 758 mmHg 75%
22:00 +16°C° 0 mm 3 mps 758 mmHg 77%
23:00 +14°C° 0 mm 3 mps 758 mmHg 78%

17 June, Thursday

Time Temperature Precipitation Wind Pressure Humidity
00:00 +14°C° 0 mm 3 mps 758 mmHg 78%
01:00 +13°C° 0 mm 3 mps 758 mmHg 78%
02:00 +13°C° 0 mm 3 mps 758 mmHg 78%
03:00 +13°C° 0 mm 3 mps 758 mmHg 79%
04:00 +12°C° 0 mm 3 mps 758 mmHg 79%
05:00 +14°C° 0 mm 3 mps 758 mmHg 77%
06:00 +17°C° 0 mm 4 mps 758 mmHg 76%
07:00 +19°C° 0 mm 4 mps 758 mmHg 74%
08:00 +21°C° 0 mm 4 mps 758 mmHg 70%
09:00 +22°C° 0 mm 5 mps 758 mmHg 66%
10:00 +25°C° 0 mm 5 mps 758 mmHg 62%
11:00 +26°C° 0 mm 5 mps 758 mmHg 58%
12:00 +27°C° 0 mm 5 mps 758 mmHg 55%
13:00 +27°C° 0 mm 5 mps 758 mmHg 51%
14:00 +27°C° 0 mm 5 mps 758 mmHg 51%
15:00 +28°C° 0 mm 4 mps 758 mmHg 51%
16:00 +28°C° 0 mm 4 mps 757 mmHg 51%
17:00 +27°C° 0 mm 4 mps 757 mmHg 59%
18:00 +25°C° 0 mm 4 mps 757 mmHg 66%
19:00 +23°C° 0 mm 4 mps 757 mmHg 73%
20:00 +22°C° 0 mm 4 mps 757 mmHg 75%
21:00 +20°C° 0 mm 4 mps 757 mmHg 77%
22:00 +19°C° 0 mm 4 mps 758 mmHg 79%
23:00 +18°C° 0 mm 4 mps 758 mmHg 80%

18 June, Friday

Time Temperature Precipitation Wind Pressure Humidity
00:00 +18°C° 0 mm 4 mps 758 mmHg 80%
01:00 +17°C° 0 mm 3 mps 758 mmHg 81%
02:00 +17°C° 0 mm 4 mps 757 mmHg 82%
03:00 +17°C° 0 mm 4 mps 757 mmHg 82%
04:00 +15°C° 0 mm 4 mps 757 mmHg 83%
05:00 +18°C° 0 mm 4 mps 757 mmHg 79%
06:00 +19°C° 0 mm 4 mps 757 mmHg 75%
07:00 +21°C° 0 mm 4 mps 757 mmHg 71%
08:00 +22°C° 0 mm 5 mps 757 mmHg 67%
09:00 +25°C° 0 mm 5 mps 757 mmHg 62%
10:00 +26°C° 0 mm 5 mps 757 mmHg 58%
11:00 +27°C° 0 mm 5 mps 757 mmHg 55%
12:00 +28°C° 0 mm 5 mps 757 mmHg 52%
13:00 +29°C° 0 mm 5 mps 757 mmHg 49%
14:00 +29°C° 0 mm 5 mps 757 mmHg 49%
15:00 +29°C° 0 mm 5 mps 757 mmHg 50%
16:00 +29°C° 0 mm 4 mps 756 mmHg 51%
17:00 +28°C° 0 mm 4 mps 756 mmHg 57%
18:00 +26°C° 0 mm 4 mps 756 mmHg 63%
19:00 +25°C° 0 mm 4 mps 756 mmHg 69%
20:00 +22°C° 0 mm 4 mps 756 mmHg 72%
21:00 +21°C° 0 mm 4 mps 756 mmHg 75%
22:00 +20°C° 0 mm 4 mps 757 mmHg 78%
23:00 +19°C° 0 mm 3 mps 757 mmHg 81%
Show more

We Need Your Consent

Meteoprog and our Service Providers may store and access personal data such as cookies, device identifiers or other similar technologies on your device and process such data to personalise content and ads, as well as provide social media features and to analyse the traffic.

  • Store and/or access information on your device

    Cookies, device identifiers or other information can be stored or accessed on your device for the purposes indicated above.

  • Personalised ads and content, ad and content measurement, audience insights, and products development

    Ads and content can be personalised based on a profile. More data can be added to better personalise ads and content. Ad and content performance can be measured. Insights about the audience who saw the ads and content can be derived. Such data can be used to develop or improve user’s experience, systems and software.

By clicking ‘I Agree’ you will allow the use of indicated cookies, device identifiers, web beacons or other similar technologies. Your settings can be changed in the browser on your device.

For certain purposes, legitimate interests may be relied on, rather than consent. You can read more about this in our Privacy and Cookie Policy.